Location: Unspecified
(0.0000°N, 0.0000°E)
Time: 06:09:42
(UTC+00:00)

Transit 4A - Pass Details

Date: 08 October 2020
Orbit: 862 x 982 km, 66.8° (Epoch: 28 October)

Event Time Altitude Azimuth Distance (km) Brightness Sun altitude
Rises 06:03:31 0° 344° (NNW) 3,642 10.8 4.0°
Reaches altitude 10° 06:06:06 10° 345° (NNW) 2,685 10.1 4.6°
Maximum altitude 06:12:22 76° 71° (ENE) 970 8.4 6.2°
Drops below altitude 10° 06:18:27 10° 156° (SSE) 2,614 10.7 7.7°
Sets 06:20:56 0° 157° (SSE) 3,540 11.4 8.3°
